DW8215 Weather Reports


Display with metric or nautical units.
time (UTC)temp
F
wind
direction
speed
MPH
gust
MPH
rain 1hr
in
rain 24hr
in
rain mn
in
humidity
%
barometer
mb
20260905074504 58 355 0.0 0.0 0.00 0.36 0.00 99 1018.1
20260905073007 58 355 0.0 0.0 0.00 0.36 0.00 99 1018.2
20260905071501 59 355 0.0 0.0 0.00 0.36 0.00 99 1018.1
20260905070100 59 355 0.0 0.0 0.00 0.36 0.00 99 1017.9
20260905064616 60 355 0.0 0.0 0.00 0.65 0.00 99 1017.7
20260905063056 60 355 0.0 0.0 0.00 0.65 0.00 99 1017.7
20260905061604 60 355 0.0 0.0 0.00 0.65 0.00 99 1017.7
20260905060055 60 355 0.0 0.0 0.00 0.65 0.00 99 1017.8
20260905054656 60 355 0.0 0.0 0.00 1.11 0.00 99 1017.8
20260905053053 60 355 0.0 0.0 0.00 1.11 0.00 99 1017.7
20260905051553 60 355 0.0 0.0 0.00 1.11 0.00 99 1017.6
20260905050050 60 355 0.0 0.0 0.00 1.11 0.00 99 1017.5
20260905044602 61 355 0.0 0.0 0.00 1.12 0.00 99 1017.4
20260905043047 61 355 0.0 0.0 0.00 1.12 0.00 98 1017.4
20260905041545 61 355 0.0 0.0 0.00 1.12 0.00 98 1017.3
20260905040042 62 355 0.0 0.0 0.00 1.12 0.00 98 1017.4
20260905034545 62 355 0.0 0.0 0.00 1.12 1.12 98 1017.4
20260905033041 62 355 0.0 0.0 0.00 1.12 1.12 98 1017.1
20260905031545 62 355 0.0 0.0 0.00 1.12 1.12 98 1017.1
20260905030039 63 355 0.0 0.0 0.00 1.12 1.12 98 1017.1
20260905024552 63 355 0.0 0.0 0.00 1.12 1.12 98 1017.1
20260905023038 63 355 0.0 0.0 0.00 1.12 1.12 98 1017.1
20260905021537 64 355 0.0 0.0 0.00 1.12 1.12 98 1017.0
20260905020039 64 355 0.0 1.0 0.00 1.12 1.12 97 1017.0
20260905014534 64 5 0.0 2.0 0.00 1.12 1.12 97 1016.8
20260905013033 64 355 1.0 3.0 0.00 1.12 1.12 97 1016.6
20260905011532 65 5 0.0 3.0 0.00 1.12 1.12 97 1016.5
20260905010038 65 355 0.0 3.0 0.00 1.12 1.12 97 1016.4
20260905004533 65 355 0.0 2.0 0.00 1.12 1.12 97 1016.3
20260905003031 65 360 0.0 2.0 0.00 1.12 1.12 96 1016.2
20260905001531 65 360 0.0 3.0 0.00 1.12 1.12 96 1016.3
20260905000034 65 5 1.0 3.0 0.00 1.12 1.12 96 1016.3
20260904234529 65 13 0.0 3.0 0.00 1.12 1.12 96 1016.2
20260904233029 65 355 2.0 4.0 0.00 1.12 1.12 96 1016.1
20260904231528 65 360 0.0 3.0 0.00 1.12 1.12 96 1016.2
20260904230032 65 9 0.0 4.0 0.00 1.12 1.12 95 1016.2
20260904224527 66 5 2.0 9.0 0.00 1.12 1.12 95 1016.2
20260904223028 66 11 2.0 5.0 0.00 1.12 1.12 95 1015.9
20260904221530 66 342 2.0 4.0 0.00 1.12 1.12 96 1015.7
20260904220025 66 355 2.0 6.0 0.00 1.12 1.12 96 1015.6
20260904214525 66 355 1.0 5.0 0.00 1.12 1.12 95 1015.5
20260904213024 66 355 2.0 4.0 0.00 1.12 1.12 95 1015.4
20260904211523 67 5 1.0 8.0 0.00 1.12 1.12 96 1015.4
20260904210027 67 9 3.0 5.0 0.00 1.12 1.12 95 1015.4
20260904204522 67 360 1.0 4.0 0.00 1.12 1.12 95 1015.3
20260904203023 68 24 1.0 4.0 0.00 1.12 1.12 95 1015.4
20260904201521 67 5 0.0 4.0 0.00 1.12 1.12 96 1015.3
20260904200021 68 355 0.0 3.0 0.00 1.12 1.12 95 1015.3
20260904194520 68 55 0.0 0.0 0.00 1.12 1.12 96 1015.1
20260904193019 68 63 0.0 0.0 0.00 1.12 1.12 95 1015.2
20260904191518 68 107 0.0 2.0 0.00 1.12 1.12 95 1015.1
20260904190016 68 140 2.0 7.0 0.00 1.12 1.12 94 1015.1
20260904184517 68 124 2.0 9.0 0.00 1.12 1.12 96 1015.0
20260904183015 68 88 0.0 1.0 0.00 1.12 1.12 96 1014.8
20260904181515 68 355 1.0 3.0 0.00 1.12 1.12 96 1014.8
20260904180015 69 346 1.0 3.0 0.00 1.12 1.12 95 1014.6
20260904174516 69 10 0.0 4.0 0.00 1.12 1.12 94 1014.6
20260904173016 70 152 0.0 2.0 0.00 1.12 1.12 97 1014.5
20260904171510 69 355 0.0 2.0 0.00 1.12 1.12 98 1014.5
20260904170006 67 5 0.0 2.0 0.00 1.12 1.12 98 1014.6
20260904164505 67 21 0.0 4.0 0.00 1.12 1.12 97 1014.8
20260904163014 66 355 0.0 4.0 0.00 1.12 1.12 97 1014.7
20260904161503 67 351 0.0 3.0 0.00 1.12 1.12 97 1014.8
20260904160002 67 9 0.0 2.0 0.00 1.12 1.12 97 1014.9
20260904154501 67 355 0.0 3.0 0.00 1.12 1.12 98 1014.8
20260904153101 66 13 0.0 4.0 0.00 1.12 1.12 99 1014.7
20260904151559 65 5 0.0 2.0 0.00 1.12 1.12 99 1014.8
20260904150057 65 344 1.0 4.0 0.00 1.12 1.12 99 1014.8
20260904144557 66 23 0.0 3.0 0.00 1.12 1.12 100 1014.8
20260904143054 65 22 0.0 3.0 0.00 1.12 1.12 100 1014.9
20260904141557 65 355 0.0 3.0 0.00 1.12 1.12 100 1014.8
20260904140105 64 9 0.0 3.0 0.00 1.12 1.12 100 1014.7
20260904134610 64 355 0.0 2.0 0.00 1.12 1.12 100 1014.6
20260904133054 63 355 0.0 0.0 0.00 1.12 1.12 100 1014.5
20260904131550 63 355 0.0 0.0 0.00 1.12 1.12 100 1014.4
20260904130047 63 355 0.0 0.0 0.01 1.12 1.12 100 1014.5
20260904124550 62 355 0.0 0.0 0.07 1.12 1.12 100 1014.3
20260904123054 62 355 0.0 0.0 0.10 1.12 1.12 100 1014.1
20260904121552 62 355 0.0 2.0 0.10 1.12 1.12 100 1013.4
20260904120045 62 355 0.0 0.0 0.09 1.11 1.11 100 1013.8
20260904114549 62 325 0.0 0.0 0.07 1.05 1.05 100 1014.4
20260904113045 61 253 0.0 0.0 0.24 1.02 1.02 100 1014.5
20260904111546 61 355 0.0 2.0 0.24 1.02 1.02 99 1014.1
20260904110041 61 355 0.0 3.0 0.24 1.02 1.02 99 1013.6
20260904104538 61 220 3.0 8.0 0.20 0.98 0.98 99 1013.0
20260904103036 61 345 0.0 0.0 0.00 0.78 0.78 99 1013.9
20260904101537 61 261 0.0 1.0 0.00 0.78 0.78 99 1013.4
20260904100030 61 186 0.0 1.0 0.00 0.78 0.78 99 1013.3
20260904094542 61 355 0.0 0.0 0.00 0.78 0.78 99 1013.8
20260904093028 61 355 0.0 0.0 0.00 0.78 0.78 99 1013.8
20260904091528 61 355 0.0 0.0 0.00 0.78 0.78 99 1014.2
20260904090042 61 350 0.0 0.0 0.00 0.78 0.78 99 1013.6
20260904084528 61 284 0.0 2.0 0.00 0.78 0.78 99 1014.2
20260904083049 61 284 0.0 0.0 0.01 0.78 0.78 99 1013.5
20260904081530 61 284 0.0 0.0 0.01 0.78 0.78 99 1014.0
20260904080020 61 284 0.0 4.0 0.02 0.78 0.78 98 1014.5